• In Austria
  • List of Countries
  • For 7 days
  • Water Temperature
  • Satellite Maps
  • Weather Map
  • News
  • Weather Widgets
  • user-avatar
    Login

    Hourly Weather Gweru

    Today, 17 February, Saturday

    Time Temperature Precipitation Wind Pressure Humidity
    00:00 +19°C° 0 mm 1 mps 643 mmHg 92%
    01:00 +19°C° 0 mm 1 mps 643 mmHg 93%
    02:00 +19°C° 0 mm 1 mps 643 mmHg 93%
    03:00 +19°C° 0 mm 1 mps 643 mmHg 94%
    04:00 +18°C° 0 mm 1 mps 642 mmHg 94%
    05:00 +17°C° 0 mm 2 mps 642 mmHg 95%
    06:00 +19°C° 0 mm 2 mps 643 mmHg 89%
    07:00 +20°C° 0 mm 2 mps 643 mmHg 84%
    08:00 +22°C° 0 mm 3 mps 644 mmHg 73%
    09:00 +24°C° 0.1 mm 3 mps 645 mmHg 67%
    10:00 +26°C° 0.1 mm 3 mps 645 mmHg 61%
    11:00 +28°C° 0.1 mm 4 mps 645 mmHg 55%
    12:00 +28°C° 0.3 mm 3 mps 644 mmHg 53%
    13:00 +29°C° 0.3 mm 3 mps 644 mmHg 51%
    14:00 +30°C° 0 mm 3 mps 644 mmHg 46%
    15:00 +29°C° 0.1 mm 2 mps 644 mmHg 50%
    16:00 +28°C° 0.1 mm 2 mps 643 mmHg 53%
    17:00 +28°C° 0.1 mm 1 mps 643 mmHg 57%
    18:00 +26°C° 1.1 mm 1 mps 643 mmHg 64%
    19:00 +24°C° 1.1 mm 1 mps 643 mmHg 71%
    20:00 +21°C° 1.1 mm 0 mps 642 mmHg 77%
    21:00 +22°C° 0.7 mm 1 mps 643 mmHg 79%
    22:00 +22°C° 0.7 mm 1 mps 643 mmHg 81%
    23:00 +21°C° 0.7 mm 1 mps 643 mmHg 83%

    Tomorrow, 18 February, Sunday

    Time Temperature Precipitation Wind Pressure Humidity
    00:00 +21°C° 0.3 mm 1 mps 643 mmHg 84%
    01:00 +19°C° 0.3 mm 0 mps 642 mmHg 86%
    02:00 +19°C° 0.3 mm 0 mps 642 mmHg 87%
    03:00 +18°C° 0.8 mm 0 mps 642 mmHg 89%
    04:00 +18°C° 0.8 mm 0 mps 642 mmHg 91%
    05:00 +18°C° 0.8 mm 0 mps 642 mmHg 92%
    06:00 +19°C° 1.3 mm 0 mps 643 mmHg 90%
    07:00 +21°C° 1.3 mm 1 mps 643 mmHg 87%
    08:00 +22°C° 1.3 mm 1 mps 644 mmHg 85%
    09:00 +24°C° 1.4 mm 1 mps 644 mmHg 78%
    10:00 +25°C° 1.4 mm 2 mps 644 mmHg 72%
    11:00 +27°C° 1.4 mm 2 mps 644 mmHg 66%
    12:00 +27°C° 1.1 mm 2 mps 644 mmHg 62%
    13:00 +28°C° 1.1 mm 2 mps 644 mmHg 59%
    14:00 +29°C° 1.1 mm 2 mps 643 mmHg 56%
    15:00 +28°C° 1.2 mm 2 mps 643 mmHg 62%
    16:00 +26°C° 1.2 mm 2 mps 642 mmHg 68%
    17:00 +25°C° 1.2 mm 1 mps 642 mmHg 74%
    18:00 +24°C° 0.8 mm 1 mps 642 mmHg 78%
    19:00 +23°C° 0.8 mm 1 mps 642 mmHg 83%
    20:00 +22°C° 0.8 mm 1 mps 642 mmHg 87%
    21:00 +21°C° 0.2 mm 1 mps 642 mmHg 89%
    22:00 +21°C° 0.2 mm 1 mps 643 mmHg 90%
    23:00 +21°C° 0.2 mm 1 mps 643 mmHg 92%

    Day after tomorrow, 19 February, Monday

    Time Temperature Precipitation Wind Pressure Humidity
    00:00 +20°C° 0.8 mm 1 mps 643 mmHg 92%
    01:00 +20°C° 0.8 mm 1 mps 642 mmHg 93%
    02:00 +20°C° 0.8 mm 1 mps 642 mmHg 94%
    03:00 +20°C° 0.3 mm 1 mps 642 mmHg 94%
    04:00 +19°C° 0.3 mm 1 mps 642 mmHg 94%
    05:00 +19°C° 0.3 mm 1 mps 642 mmHg 94%
    06:00 +19°C° 0.1 mm 2 mps 642 mmHg 90%
    07:00 +20°C° 0.1 mm 2 mps 643 mmHg 87%
    08:00 +21°C° 0.1 mm 2 mps 644 mmHg 84%
    09:00 +23°C° 0.9 mm 2 mps 644 mmHg 79%
    10:00 +24°C° 0.9 mm 3 mps 644 mmHg 74%
    11:00 +26°C° 0.9 mm 3 mps 644 mmHg 69%
    12:00 +26°C° 1.3 mm 2 mps 644 mmHg 66%
    13:00 +27°C° 1.3 mm 2 mps 643 mmHg 64%
    14:00 +27°C° 1.3 mm 2 mps 643 mmHg 62%
    15:00 +27°C° 2.3 mm 1 mps 643 mmHg 68%
    16:00 +26°C° 2.3 mm 1 mps 642 mmHg 74%
    17:00 +25°C° 2.3 mm 1 mps 642 mmHg 79%
    18:00 +23°C° 1.2 mm 1 mps 642 mmHg 83%
    19:00 +22°C° 1.2 mm 1 mps 642 mmHg 86%
    20:00 +21°C° 1.2 mm 1 mps 643 mmHg 89%
    21:00 +21°C° 0.2 mm 1 mps 643 mmHg 90%
    22:00 +21°C° 0.2 mm 1 mps 643 mmHg 91%
    23:00 +20°C° 0.2 mm 1 mps 643 mmHg 92%

    20 February, Tuesday

    Time Temperature Precipitation Wind Pressure Humidity
    00:00 +20°C° 0.3 mm 1 mps 643 mmHg 93%
    01:00 +20°C° 0.3 mm 1 mps 642 mmHg 93%
    02:00 +20°C° 0.3 mm 1 mps 641 mmHg 94%
    03:00 +19°C° 0.3 mm 1 mps 641 mmHg 94%
    04:00 +19°C° 0.3 mm 1 mps 641 mmHg 95%
    05:00 +19°C° 0.3 mm 1 mps 641 mmHg 95%
    06:00 +20°C° 0.5 mm 1 mps 642 mmHg 93%
    07:00 +21°C° 0.5 mm 1 mps 643 mmHg 90%
    08:00 +21°C° 0.5 mm 1 mps 643 mmHg 88%
    09:00 +22°C° 1.1 mm 1 mps 644 mmHg 82%
    10:00 +24°C° 1.1 mm 1 mps 644 mmHg 77%
    11:00 +25°C° 1.1 mm 1 mps 644 mmHg 72%
    12:00 +25°C° 1.7 mm 1 mps 643 mmHg 71%
    13:00 +26°C° 1.7 mm 1 mps 643 mmHg 70%
    14:00 +26°C° 1.7 mm 1 mps 642 mmHg 69%
    15:00 +25°C° 2 mm 1 mps 642 mmHg 73%
    16:00 +24°C° 2 mm 1 mps 641 mmHg 78%
    17:00 +23°C° 2 mm 1 mps 641 mmHg 82%
    18:00 +22°C° 1.1 mm 1 mps 641 mmHg 85%
    19:00 +22°C° 1.1 mm 1 mps 642 mmHg 88%
    20:00 +20°C° 1.1 mm 2 mps 642 mmHg 91%
    21:00 +20°C° 0.9 mm 1 mps 642 mmHg 91%
    22:00 +20°C° 0.9 mm 1 mps 642 mmHg 92%
    23:00 +20°C° 0.9 mm 1 mps 643 mmHg 93%

    21 February, Wednesday

    Time Temperature Precipitation Wind Pressure Humidity
    00:00 +20°C° 1.6 mm 1 mps 642 mmHg 93%
    01:00 +20°C° 1.6 mm 1 mps 642 mmHg 93%
    02:00 +20°C° 1.6 mm 1 mps 641 mmHg 93%
    03:00 +20°C° 1 mm 1 mps 641 mmHg 94%
    04:00 +20°C° 1 mm 1 mps 641 mmHg 94%
    05:00 +19°C° 1 mm 1 mps 641 mmHg 94%
    06:00 +20°C° 0.7 mm 1 mps 642 mmHg 93%
    07:00 +20°C° 0.7 mm 1 mps 642 mmHg 92%
    08:00 +21°C° 0.7 mm 1 mps 643 mmHg 90%
    09:00 +22°C° 0.8 mm 1 mps 643 mmHg 85%
    10:00 +23°C° 0.8 mm 1 mps 643 mmHg 79%
    11:00 +25°C° 0.8 mm 1 mps 643 mmHg 73%
    12:00 +25°C° 1.3 mm 2 mps 643 mmHg 72%
    13:00 +26°C° 1.3 mm 2 mps 642 mmHg 71%
    14:00 +26°C° 1.3 mm 2 mps 641 mmHg 70%
    15:00 +25°C° 2.1 mm 2 mps 641 mmHg 75%
    16:00 +24°C° 2.1 mm 1 mps 641 mmHg 79%
    17:00 +24°C° 2.1 mm 1 mps 641 mmHg 83%
    18:00 +23°C° 1.3 mm 1 mps 641 mmHg 86%
    19:00 +22°C° 1.3 mm 1 mps 641 mmHg 88%
    20:00 +21°C° 1.3 mm 1 mps 641 mmHg 91%
    21:00 +20°C° 0.7 mm 1 mps 641 mmHg 92%
    22:00 +20°C° 0.7 mm 1 mps 641 mmHg 92%
    23:00 +19°C° 0.7 mm 2 mps 641 mmHg 93%

    22 February, Thursday

    Time Temperature Precipitation Wind Pressure Humidity
    00:00 +19°C° 0.9 mm 2 mps 641 mmHg 94%
    01:00 +18°C° 0.9 mm 2 mps 641 mmHg 95%
    02:00 +18°C° 0.9 mm 2 mps 640 mmHg 95%
    03:00 +18°C° 0.9 mm 2 mps 640 mmHg 95%
    04:00 +18°C° 0.9 mm 2 mps 641 mmHg 95%
    05:00 +18°C° 0.9 mm 2 mps 641 mmHg 94%
    06:00 +19°C° 0.5 mm 2 mps 641 mmHg 92%
    07:00 +19°C° 0.5 mm 2 mps 642 mmHg 90%
    08:00 +20°C° 0.5 mm 2 mps 642 mmHg 88%
    09:00 +23°C° 1 mm 2 mps 643 mmHg 83%
    10:00 +24°C° 1 mm 2 mps 643 mmHg 77%
    11:00 +25°C° 1 mm 2 mps 643 mmHg 72%
    12:00 +26°C° 1.4 mm 2 mps 642 mmHg 71%
    13:00 +26°C° 1.4 mm 2 mps 642 mmHg 70%
    14:00 +26°C° 1.4 mm 2 mps 642 mmHg 69%
    15:00 +26°C° 1.4 mm 2 mps 641 mmHg 73%
    16:00 +25°C° 1.4 mm 2 mps 641 mmHg 76%
    17:00 +24°C° 1.4 mm 2 mps 641 mmHg 80%
    18:00 +22°C° 1.8 mm 3 mps 641 mmHg 84%
    19:00 +21°C° 1.8 mm 3 mps 641 mmHg 88%
    20:00 +19°C° 1.8 mm 4 mps 641 mmHg 92%
    21:00 +19°C° 1.1 mm 4 mps 641 mmHg 93%
    22:00 +19°C° 1.1 mm 4 mps 642 mmHg 94%
    23:00 +19°C° 1.1 mm 4 mps 642 mmHg 94%
    Show more